Flag for Germany Weather past 2 weeks in Augsburg, Bavaria, Germany

Now
36 °F

Scattered clouds.


Feels Like: 24 °F
Forecast: 33 / 42 °F
Wind: 21 mph from West

Location: Augsburg Airport

Current Time: Apr 1, 2015 at 10:15:45 AM

Latest Report: Apr 1, 2015 at 9:50 AM


Visibility: N/A

Pressure: 30.01 "Hg

Humidity: 75%

Dew point: 28 °F

Location of AugsburgLocation

Historic Weather in Augsburg — Graph

°F

Augsburg temperature yesterday

Maximum temperature yesterday: 57 °F (at 10:20 AM)
Minimum temperature yesterday: 41 °F (at 8:20 PM)
Average temperature yesterday: 51 °F

Past Weeks' High & Low Weather Summary

 TemperatureHumidityPressure
High63 °F (Mar 17, 1:50 PM)100% (Mar 18, 6:20 AM)30.24 "Hg (Mar 18, 6:20 AM)
Low28 °F (Mar 19, 6:20 AM)28% (Mar 20, 3:50 PM)29.50 "Hg (Mar 31, 9:50 AM)
Average47 °F65%29.95 "Hg
* Reported Mar 17 8:20 AM — Apr 1 9:20 AM, Augsburg, Weather by CustomWeather, © 2015

Note: Actual official high and low records may vary slightly from our data, if they occured in-between our weather recording intervals... More about our weather records

Advertising

Augsburg weather history for previous 24 hours

 ConditionsComfort  
Time TempWeatherWind HumidityBarometerVisibility
9:20 AM
Wed, Apr 1
36 °FScattered clouds.16 mph81%30.01 "HgN/A
8:50 AM36 °FScattered clouds.17 mph87%29.98 "HgN/A
8:20 AM34 °FScattered clouds.14 mph100%29.98 "HgN/A
7:50 AM34 °FSnow. Mostly cloudy.18 mph93%29.98 "Hg2 mi
7:20 AM34 °FPartly cloudy.15 mph100%29.98 "HgN/A
6:50 AM34 °FSnow flurries. Partly cloudy.15 mph100%29.95 "HgN/A
6:20 AM34 °FPassing clouds.15 mph100%29.95 "HgN/A
5:50 AM34 °FPassing clouds.17 mph100%29.95 "HgN/A
8:50 PM
Tue, Mar 31
41 °FClear.17 mph70%29.86 "Hg10 mi
8:20 PM41 °FScattered clouds.23 mph70%29.83 "HgN/A
7:50 PM43 °FSprinkles. Broken clouds.26 mph71%29.83 "HgN/A
7:20 PM43 °FSprinkles. Broken clouds.26 mph76%29.80 "HgN/A
6:50 PM50 °FScattered clouds.29 mph54%29.74 "HgN/A
6:20 PM50 °FScattered clouds.24 mph62%29.71 "HgN/A
5:50 PM48 °FScattered clouds.33 mph66%29.68 "HgN/A
5:20 PM48 °FLight rain. Partly sunny.36 mph66%29.68 "HgN/A
4:50 PM48 °FLight rain. Partly sunny.35 mph71%29.68 "HgN/A
4:20 PM50 °FLight rain. Partly sunny.28 mph67%29.65 "HgN/A
3:50 PM50 °FPartly sunny.30 mph67%29.62 "HgN/A
3:20 PM48 °FRain. Partly sunny.37 mph82%29.62 "HgN/A
2:50 PM52 °FPartly sunny.33 mph72%29.62 "HgN/A
2:20 PM54 °FScattered clouds.36 mph67%29.62 "HgN/A
1:50 PM55 °FDrizzle. Partly sunny.32 mph63%29.59 "HgN/A
1:20 PM54 °FDrizzle. Partly sunny.30 mph67%29.59 "HgN/A
12:50 PM54 °FPartly sunny.29 mph72%29.59 "HgN/A
12:20 PM54 °FDrizzle. Broken clouds.37 mph67%29.59 "HgN/A
11:50 AM55 °FPartly sunny.36 mph59%29.56 "HgN/A
11:20 AM55 °FPartly sunny.39 mph59%29.56 "HgN/A
10:50 AM55 °FSprinkles. Partly sunny.37 mph55%29.56 "HgN/A
10:20 AM57 °FPartly sunny.41 mph48%29.53 "HgN/A
Weather by CustomWeather, © 2015

See weather overviewHow to use our weather pages